WetterOnline ( http://www.wetteronline.de )

Wetter aktuell Marburg

Aktuelles Wetter: Neu-Ulrichstein (350m)

6-stündlich | Neueste Meldungen
Ortszeit Temperatur Wetter
Mo, 21.05. 20:00 19.5° C wolkig
Mo, 21.05. 14:00 20.9° C wolkig
Mo, 21.05. 8:00 12.9° C wolkenlos
Mo, 21.05. 2:00 12.2° C wolkenlos
So, 20.05. 20:00 18.5° C fast wolkenlos
So, 20.05. 14:00 19.9° C wolkenlos
So, 20.05. 8:00 10.6° C wolkenlos
So, 20.05. 2:00 8.4° C wolkenlos
Ortszeit Temperatur Wetter
Di, 22.05. 0:00 15.2° C leicht bewölkt
Mo, 21.05. 23:50 15.2° C leicht bewölkt
Mo, 21.05. 23:40 14.9° C bedeckt
Mo, 21.05. 23:30 15.4° C wolkig
Mo, 21.05. 23:20 15.4° C wolkig
Mo, 21.05. 23:10 15.9° C bewölkt
Mo, 21.05. 23:00 15.7° C wolkig
Mo, 21.05. 22:30 16.4° C bewölkt
Mo, 21.05. 22:00 17.0° C wolkig
Mo, 21.05. 21:30 17.6° C bedeckt
Mo, 21.05. 21:00 18.1° C bewölkt
Ortszeit Relative Feuchte Sichtweite
Mo, 21.05. 20:00 51% 40 km
Mo, 21.05. 14:00 46% 25 km
Mo, 21.05. 8:00 70% 35 km
Mo, 21.05. 2:00 58% 70 km
So, 20.05. 20:00 45% 40 km
So, 20.05. 14:00 48% 24 km
So, 20.05. 8:00 84% 6 km
So, 20.05. 2:00 85% 11 km
Ortszeit Relative Feuchte Sichtweite
Di, 22.05. 0:00 63% 55 km
Mo, 21.05. 23:50 63% -
Mo, 21.05. 23:40 65% -
Mo, 21.05. 23:30 62% 60 km
Mo, 21.05. 23:20 62% -
Mo, 21.05. 23:10 60% -
Mo, 21.05. 23:00 61% 65 km
Mo, 21.05. 22:30 57% 70 km
Mo, 21.05. 22:00 54% 65 km
Mo, 21.05. 21:30 52% 70 km
Mo, 21.05. 21:00 50% 70 km
Ortszeit Niederschlagsmenge Niederschlagsart
Mo, 21.05. 20:00 0.0 l/m2 in 12 Std. -
Mo, 21.05. 14:00 0.0 l/m2 in 6 Std. -
Mo, 21.05. 8:00 0.0 l/m2 in 12 Std. -
Mo, 21.05. 2:00 0.0 l/m2 in 6 Std. -
So, 20.05. 20:00 0.0 l/m2 in 12 Std. -
So, 20.05. 14:00 0.0 l/m2 in 6 Std. -
So, 20.05. 8:00 0.0 l/m2 in 12 Std. -
So, 20.05. 2:00 0.0 l/m2 in 6 Std. -
Ortszeit Niederschlagsmenge Niederschlagsart
Di, 22.05. 0:00 0.0 l/m2 in 1 Std. -
Mo, 21.05. 23:50 keine Meldung -
Mo, 21.05. 23:40 keine Meldung -
Mo, 21.05. 23:30 0.0 l/m2 in 1 Std. -
Mo, 21.05. 23:20 keine Meldung -
Mo, 21.05. 23:10 keine Meldung -
Mo, 21.05. 23:00 0.0 l/m2 in 1 Std. -
Mo, 21.05. 22:30 0.0 l/m2 in 1 Std. -
Mo, 21.05. 22:00 0.0 l/m2 in 1 Std. -
Mo, 21.05. 21:30 0.0 l/m2 in 1 Std. -
Mo, 21.05. 21:00 0.0 l/m2 in 1 Std. -
Ortszeit Stärke Spitze Richtung
km/h Bft. km/h Grad Sektor
Mo, 21.05. 20:00 19 3 39 50° NO
Mo, 21.05. 14:00 25 4 40 50° NO
Mo, 21.05. 8:00 19 3 26 50° NO
Mo, 21.05. 2:00 18 3 32 60° NO
So, 20.05. 20:00 24 4 46 50° NO
So, 20.05. 14:00 20 4 33 60° NO
So, 20.05. 8:00 9 2 19 30° NO
So, 20.05. 2:00 7 2 22 40° NO
Ortszeit Stärke Spitze Richtung
km/h Bft. km/h Grad Sektor
Di, 22.05. 0:00 17 3 22 60° NO
Mo, 21.05. 23:50 17 3 - 60° NO
Mo, 21.05. 23:40 15 3 - 60° NO
Mo, 21.05. 23:30 14 3 22 60° NO
Mo, 21.05. 23:20 14 3 - 60° NO
Mo, 21.05. 23:10 14 3 - 60° NO
Mo, 21.05. 23:00 17 3 24 60° NO
Mo, 21.05. 22:30 18 3 25 60° NO
Mo, 21.05. 22:00 18 3 29 60° NO
Mo, 21.05. 21:30 17 3 28 60° NO
Mo, 21.05. 21:00 17 3 28 60° NO
Ortszeit Untergrenze Bedeckung Gattung
total tief tief mittel hoch
Mo, 21.05. 20:00 3600 m 8/8 6/8 - - -
Mo, 21.05. 14:00 1800 m 5/8 5/8 - - -
Mo, 21.05. 8:00 - 0/8 0/8 - - -
Mo, 21.05. 2:00 - 0/8 0/8 - - -
So, 20.05. 20:00 7500 m 1/8 0/8 - - -
So, 20.05. 14:00 8400 m 0/8 0/8 - - -
So, 20.05. 8:00 - 0/8 0/8 - - -
So, 20.05. 2:00 2700 m 0/8 0/8 - - -
Ortszeit Bedeckungsgrad in Achtel und Wolkenuntergrenze
Di, 22.05. 0:00 2(3300m) 3(5400m)
Mo, 21.05. 23:50 2(3300m) 3(5400m)
Mo, 21.05. 23:40 9 9 9
Mo, 21.05. 23:30 3(2100m) 7(6000m) 7(8700m)
Mo, 21.05. 23:20 3(2100m) 7(6000m) 7(8700m)
Mo, 21.05. 23:10 4(2100m) 7(5400m) 8(8700m)
Mo, 21.05. 23:00 1(2100m) 8(5400m) 8(8400m)
Mo, 21.05. 22:30 4(2100m) 7(5100m) 8(8400m)
Mo, 21.05. 22:00 4(2100m) 7(7200m) 7(7800m)
Mo, 21.05. 21:30 8(4800m) 8(7500m) 8(9000m)
Mo, 21.05. 21:00 5(5100m) 6(5700m) 8(8700m)
Ortszeit Luftdruck NN (hPa) Tendenz (hPa in 3 Std.)
Mo, 21.05. 20:00 1013 - 0,8
Mo, 21.05. 14:00 1015 - 1,8
Mo, 21.05. 8:00 1019 - 0,4
Mo, 21.05. 2:00 1020 - 0,8
So, 20.05. 20:00 1019 - 0,4
So, 20.05. 14:00 1021 - 0,8
So, 20.05. 8:00 1023 + 0,8
So, 20.05. 2:00 1023 + 0,2
Ortszeit Luftdruck NN (hPa) Tendenz (hPa in 3 Std.)
Di, 22.05. 0:00 1013 - 0,1
Mo, 21.05. 23:50 1013 keine Meldung
Mo, 21.05. 23:40 1013 keine Meldung
Mo, 21.05. 23:30 1013 + 0,1
Mo, 21.05. 23:20 1013 keine Meldung
Mo, 21.05. 23:10 1013 keine Meldung
Mo, 21.05. 23:00 1013 + 0,3
Mo, 21.05. 22:30 1013 + 0,3
Mo, 21.05. 22:00 1013 + 0,1
Mo, 21.05. 21:30 1013 + 0,1
Mo, 21.05. 21:00 1013 - 0,2
Ortszeit Schneehöhe (cm)
Mo, 21.05. 20:00 -
Mo, 21.05. 14:00 -
Mo, 21.05. 8:00 -
Mo, 21.05. 2:00 -
So, 20.05. 20:00 -
So, 20.05. 14:00 -
So, 20.05. 8:00 -
So, 20.05. 2:00 -
Ortszeit Schneehöhe (cm)
Di, 22.05. 0:00 -
Mo, 21.05. 23:50 -
Mo, 21.05. 23:40 -
Mo, 21.05. 23:30 -
Mo, 21.05. 23:20 -
Mo, 21.05. 23:10 -
Mo, 21.05. 23:00 -
Mo, 21.05. 22:30 -
Mo, 21.05. 22:00 -
Mo, 21.05. 21:30 -
Mo, 21.05. 21:00 -
Link zu dieser Seite / Seite empfehlen

Das Wetter in ...